Location: Goettingen
(51.5300°N, 9.9433°E)
Time: 20:04:06
(UTC+02:00)

ISS - Pass Details

Date: 19 July 2019
Orbit: 409 x 418 km, 51.6° (Epoch: 20 July)

Event Time Altitude Azimuth Distance (km) Brightness Sun altitude
Rises 03:52:14 0° 283° (WNW) 2,348 -0.2 -10.8°
Reaches altitude 10° 03:54:35 10° 268° (W) 1,481 -1.3 -10.6°
Maximum altitude 03:57:16 23° 214° (SW) 926 -2.6 -10.4°
Drops below altitude 10° 03:59:57 10° 160° (SSE) 1,471 -1.3 -10.1°
Sets 04:02:17 0° 145° (SE) 2,328 -0.2 -9.9°
